DateTimeUTC,F1_A11,F1_S11,BsB_S11,BsG_S11,BsR_S11,BbsB_S11,BbsG_S11,BbsR_S11,BaB_A11,BaG_A11,BaR_A11,Tu_S11,T_S11,Uu_S11,U_S11,P_S11,T1_A11
2021-12-15T19:00:00Z,00000200,21000000,,,,,,,-000.19,-000.07,-000.48,20.0,27.0,,00.0,0640.9,31.1
2021-12-15T19:01:00Z,00000200,21000000,,,,,,,-000.07,-000.59,-000.03,19.9,27.0,,00.0,0640.8,31.2
2021-12-15T19:02:00Z,00000200,21000000,,,,,,,-000.06,0000.56,0000.26,19.9,27.0,,00.0,0640.8,31.2
2021-12-15T19:03:00Z,00000200,61000000,,,,,,,0000.07,-000.04,0000.22,19.9,27.0,,00.0,0640.8,31.2
2021-12-15T19:04:00Z,00000200,41000000,-000.35,0000.18,0000.20,0000.32,0000.14,0000.30,0000.11,0000.15,-000.42,20.2,26.9,,00.0,0641.7,31.2
2021-12-15T19:05:00Z,00000200,01000000,-000.84,0000.05,0000.00,-000.26,0000.03,0000.19,0000.13,0000.15,0000.32,20.3,26.9,,00.0,0641.8,31.2
2021-12-15T19:06:00Z,00000200,01000000,-000.19,-000.07,-000.04,0000.09,0000.19,-000.36,-000.05,-000.22,0000.19,20.4,26.9,,00.0,0641.8,31.2
2021-12-15T19:07:00Z,00000200,01000000,0000.07,0000.30,0000.09,-000.11,-000.07,0000.29,-000.04,0000.16,-000.11,20.4,26.9,,00.0,0641.9,31.2
2021-12-15T19:08:00Z,00000200,01000000,0000.12,0000.26,0000.08,-000.29,0000.03,-000.11,-000.12,-000.22,0000.24,20.4,27.0,,00.0,0641.9,31.2
2021-12-15T19:09:00Z,00000200,01000000,0000.16,0000.17,-000.06,0000.45,-000.01,0000.19,0000.32,-000.05,-000.29,20.4,27.0,,00.0,0641.9,31.2
2021-12-15T19:10:00Z,00000200,01000000,0000.50,0000.16,0000.08,0000.45,-000.15,0000.22,-000.09,0000.15,0000.07,20.4,27.0,,00.0,0641.9,31.2
2021-12-15T19:11:00Z,00000200,01000000,0000.34,-000.00,-000.05,0000.27,0000.08,0000.14,0000.07,0000.02,-000.35,20.3,26.9,,00.0,0641.9,31.2
2021-12-15T19:12:00Z,00000200,01000000,-000.35,-000.06,-000.04,0000.02,-000.42,0000.01,-000.29,-000.26,0000.20,20.3,26.9,,00.0,0641.9,31.2
2021-12-15T19:13:00Z,00000200,01000000,-000.19,0000.06,0000.03,-000.33,-000.10,0000.23,0000.23,0000.32,0000.47,20.2,26.9,,00.0,0641.9,31.2
2021-12-15T19:14:00Z,00000200,01000000,-001.44,0000.02,-000.42,0000.50,0000.14,-000.53,-000.00,-000.06,-000.50,20.2,26.9,,00.0,0641.9,31.1
2021-12-15T19:15:00Z,00000200,01000000,-000.48,-000.23,-000.06,-000.34,0000.03,0000.03,-000.20,-000.16,0000.07,20.2,26.8,,00.0,0641.9,31.1
2021-12-15T19:16:00Z,00000200,01000000,0000.96,0000.09,0000.24,0000.83,-000.12,0000.29,-000.04,0000.10,-000.03,20.2,26.8,,00.0,0641.9,31.1
2021-12-15T19:17:00Z,00000200,01000000,-000.10,0000.08,0000.12,-000.11,-000.18,0000.17,0000.48,-000.14,0000.21,20.2,26.8,,00.0,0642.0,31.2
2021-12-15T19:18:00Z,00000200,01000000,0000.23,-000.37,0000.26,0000.35,0000.06,-000.15,-000.13,0000.44,-000.03,20.3,26.8,,00.0,0642.0,31.2
2021-12-15T19:19:00Z,00000200,01000000,-000.34,0000.11,-000.08,0000.43,0000.17,-000.05,-000.10,-000.07,-000.19,20.3,26.9,,00.0,0642.0,31.2
2021-12-15T19:20:00Z,00000200,01000000,0000.40,0000.05,-000.07,0000.23,-000.07,0000.29,0000.35,0000.12,0000.24,20.4,26.9,,00.0,0642.0,31.2
2021-12-15T19:21:00Z,00000200,01000000,-000.48,-000.09,0000.16,-000.14,-000.25,0000.06,0000.08,0000.12,0000.33,20.4,26.9,,00.0,0642.0,31.2
2021-12-15T19:22:00Z,00000200,01000000,0000.04,0000.07,-000.24,0000.06,-000.20,0000.13,0000.00,-000.07,-000.24,20.4,26.9,,00.0,0642.0,31.2
2021-12-15T19:23:00Z,00000200,01000000,-000.52,0000.02,-000.13,-000.24,0000.13,0000.32,-000.01,-000.17,-000.13,20.3,26.9,,00.0,0642.0,31.2
2021-12-15T19:24:00Z,00000200,01000000,0000.04,-000.16,0000.19,-000.32,-000.04,0000.10,0000.09,0000.58,0000.51,20.3,26.9,,00.0,0642.0,31.2
2021-12-15T19:25:00Z,00000200,01000000,0000.74,0000.25,-000.25,-000.22,0000.02,0000.04,-000.19,-000.21,-000.19,20.2,26.9,,00.0,0642.0,31.1
2021-12-15T19:26:00Z,00000200,01000000,0000.54,0000.15,0000.04,-000.11,-000.23,0000.12,0000.43,0000.29,0000.12,20.2,26.8,,00.0,0642.0,31.1
2021-12-15T19:27:00Z,00000200,01000000,-000.38,-000.15,0000.02,-000.34,0000.20,-000.13,0000.09,-000.25,0000.00,20.2,26.8,,00.0,0642.0,31.1
2021-12-15T19:28:00Z,00000200,01000000,0000.43,-000.05,0000.04,0000.29,0000.25,0000.10,-000.36,-000.26,-000.23,20.1,26.8,,00.0,0642.0,31.1
2021-12-15T19:29:00Z,00000200,01000000,-000.16,0000.09,0000.10,-000.36,-000.20,-000.02,-000.29,0000.19,0000.06,20.1,26.7,,00.0,0642.0,31.1
2021-12-15T19:30:00Z,00000200,01000000,-000.01,-000.24,0000.07,0000.47,-000.08,-000.26,0000.68,-000.41,0000.01,20.0,26.7,,00.0,0642.1,31.1
2021-12-15T19:31:00Z,00000200,01000000,-000.84,-000.15,-000.20,-000.14,-000.04,0000.05,-000.43,0000.34,-000.03,20.0,26.7,,00.0,0642.1,31.1
2021-12-15T19:32:00Z,00000200,01000000,0000.40,0000.03,-000.12,-000.18,-000.21,0000.05,0000.13,-000.16,0000.27,20.1,26.7,,00.0,0642.1,31.2
2021-12-15T19:33:00Z,00000200,01000000,0000.13,-000.15,-000.13,0000.26,0000.07,-000.09,0000.20,-000.10,0000.02,20.1,26.7,,00.0,0642.1,31.1
2021-12-15T19:34:00Z,00000200,01000000,0000.27,0000.02,0000.26,0000.38,0000.23,-000.20,-000.22,0000.43,-000.04,20.2,26.7,,00.0,0642.2,31.2
2021-12-15T19:35:00Z,00000200,01000000,-000.41,0000.02,0000.35,0000.27,0000.22,0000.50,0000.11,-000.01,-000.16,20.3,26.8,,00.0,0642.2,31.2
2021-12-15T19:36:00Z,00000200,01000000,-000.12,-000.06,0000.23,0000.04,-000.01,0000.33,-000.51,-000.04,0000.10,20.3,26.8,,00.0,0642.3,31.2
2021-12-15T19:37:00Z,00000200,01000000,-000.61,-000.03,0000.33,0000.06,-000.21,0000.24,0000.15,-000.24,-000.13,20.4,26.8,,00.0,0642.2,31.2
2021-12-15T19:38:00Z,00000200,01000000,-000.52,0000.06,-000.05,0000.63,-000.10,-000.06,-000.20,-000.22,-000.39,20.4,26.9,,00.0,0642.3,31.2
2021-12-15T19:39:00Z,00000200,01000000,-000.20,-000.14,-000.20,0000.08,0000.00,-000.00,0000.58,0000.19,0000.34,20.4,26.9,,00.0,0642.3,31.2
2021-12-15T19:40:00Z,00000200,01000000,0000.69,-000.09,0000.02,-000.13,0000.07,0000.03,-000.18,0000.42,0000.19,20.4,26.9,,00.0,0642.2,31.2
2021-12-15T19:41:00Z,00000200,01000000,-000.56,-000.25,0000.05,-000.09,-000.08,0000.35,-000.23,-000.04,-000.07,20.3,26.9,,00.0,0642.3,31.2
2021-12-15T19:42:00Z,00000200,01000000,0000.21,-000.15,-000.01,0000.88,-000.00,0000.06,0000.24,-000.25,-000.01,20.3,26.9,,00.0,0642.2,31.2
2021-12-15T19:43:00Z,00000200,01000000,0000.06,0000.12,0000.01,0000.21,-000.24,0000.09,-000.11,0000.13,0000.25,20.3,26.9,,00.0,0642.2,31.2
2021-12-15T19:44:00Z,00000200,01000000,0000.03,-000.20,-000.28,-000.01,-000.04,0000.03,0000.11,-000.12,-000.08,20.2,26.8,,00.0,0642.3,31.2
2021-12-15T19:45:00Z,00000200,01000000,-000.04,-000.03,0000.14,-000.16,0000.05,0000.23,-000.17,-000.16,-000.48,20.2,26.8,,00.0,0642.3,31.2
2021-12-15T19:46:00Z,00000200,01000000,0000.25,0000.08,0000.18,-000.10,0000.05,-000.25,0000.31,0000.09,0000.24,20.2,26.8,,00.0,0642.3,31.1
2021-12-15T19:47:00Z,00000200,01000000,0000.13,-000.05,0000.46,-000.40,0000.11,0000.07,-000.02,0000.40,-000.04,20.2,26.8,,00.0,0642.4,31.1
2021-12-15T19:48:00Z,00000200,01000000,-000.22,0000.14,0000.14,0000.10,-000.03,0000.10,0000.07,0000.40,0000.06,20.3,26.8,,00.0,0642.4,31.2
2021-12-15T19:49:00Z,00000200,01000000,0000.24,-000.43,-000.24,0000.30,-000.05,0000.01,0000.19,0000.09,0000.25,20.3,26.8,,00.0,0642.4,31.2
2021-12-15T19:50:00Z,00000200,01000000,-000.07,0000.03,0000.09,-000.18,0000.22,-000.07,-000.19,-000.53,-000.04,20.4,26.9,,00.0,0642.4,31.2
2021-12-15T19:51:00Z,00000200,01000000,-000.07,0000.10,0000.51,-000.08,0000.05,0000.12,0000.00,-000.02,0000.21,20.4,26.9,,00.0,0642.4,31.2
2021-12-15T19:52:00Z,00000200,01000000,0000.30,-000.00,-000.20,0000.23,0000.08,0000.05,0000.03,0000.08,-000.24,20.5,26.9,,00.0,0642.4,31.2
2021-12-15T19:53:00Z,00000200,01000000,-000.83,0000.12,-000.06,0000.18,-000.01,-000.37,0000.35,-000.05,0000.22,20.5,27.0,,00.0,0642.4,31.2
2021-12-15T19:54:00Z,00000200,01000000,-000.19,-000.02,-000.10,0001.09,-000.05,-000.07,-000.25,0000.34,0000.21,20.5,26.9,,00.0,0642.4,31.2
2021-12-15T19:55:00Z,00000200,01000000,0000.34,0000.10,0000.02,-000.03,-000.15,0000.28,-000.07,-000.09,-000.39,20.4,26.9,,00.0,0642.5,31.2
2021-12-15T19:56:00Z,00000200,01000000,0000.07,-000.13,-000.18,-000.03,-000.24,0000.07,-000.04,-000.35,-000.07,20.4,26.9,,00.0,0642.5,31.2
2021-12-15T19:57:00Z,00000200,41000000,,,,,,,0000.54,0000.78,0000.44,20.4,26.9,,00.0,0642.5,31.2
2021-12-15T19:58:00Z,00000200,61000000,,,,,,,-000.45,-000.36,-000.25,20.0,27.0,,00.0,0641.6,31.2
2021-12-15T19:59:00Z,00000200,21000000,,,,,,,0000.10,-000.13,-000.19,20.0,27.1,,00.0,0641.5,31.1
